owner,sensor,date,latitude,longitude,vertical_datum,wind_speed,wind_to_direction,wind_speed_of_gust,qcFlag 
DISL,ioos:station:DISL:BSCA:1,2017-04-01T00:00:00Z,30.3288,-87.8293,0.0,6.19,254.6,-999.0,'1111122,1111122,1111122' 
DISL,ioos:station:DISL:BSCA:1,2017-04-01T00:30:00Z,30.3288,-87.8293,0.0,5.58,257.2,-999.0,'1111122,1111122,1111122' 
DISL,ioos:station:DISL:BSCA:1,2017-04-01T01:00:00Z,30.3288,-87.8293,0.0,5.44,260.7,-999.0,'1111122,1111122,1111122' 
DISL,ioos:station:DISL:BSCA:1,2017-04-01T01:30:00Z,30.3288,-87.8293,0.0,5.42,268.2,-999.0,'1111122,1111122,1111122' 
DISL,ioos:station:DISL:BSCA:1,2017-04-01T02:00:00Z,30.3288,-87.8293,0.0,5.46,269.0,-999.0,'1111122,1111122,1111122' 
DISL,ioos:station:DISL:BSCA:1,2017-04-01T02:30:00Z,30.3288,-87.8293,0.0,4.5,267.4,-999.0,'1111122,1111122,1111122' 
DISL,ioos:station:DISL:BSCA:1,2017-04-01T03:00:00Z,30.3288,-87.8293,0.0,3.91,260.4,-999.0,'1111122,1111122,1111122' 
DISL,ioos:station:DISL:BSCA:1,2017-04-01T03:30:00Z,30.3288,-87.8293,0.0,4.2,263.2,-999.0,'1111122,1111122,1111122' 
DISL,ioos:station:DISL:BSCA:1,2017-04-01T04:00:00Z,30.3288,-87.8293,0.0,3.13,269.8,-999.0,'1111122,1111122,1111122' 
DISL,ioos:station:DISL:BSCA:1,2017-04-01T04:30:00Z,30.3288,-87.8293,0.0,2.93,280.0,-999.0,'1111122,1111122,1111122' 
DISL,ioos:station:DISL:BSCA:1,2017-04-01T05:00:00Z,30.3288,-87.8293,0.0,3.26,288.9,-999.0,'1111122,1111122,1111122' 
DISL,ioos:station:DISL:BSCA:1,2017-04-01T05:30:00Z,30.3288,-87.8293,0.0,2.68,288.1,-999.0,'1111122,1111122,1111122' 
DISL,ioos:station:DISL:BSCA:1,2017-04-01T06:00:00Z,30.3288,-87.8293,0.0,2.03,254.8,-999.0,'1111122,1111122,1111122' 
DISL,ioos:station:DISL:BSCA:1,2017-04-01T06:30:00Z,30.3288,-87.8293,0.0,2.45,240.1,-999.0,'1111122,1111122,1111122' 
DISL,ioos:station:DISL:BSCA:1,2017-04-01T07:00:00Z,30.3288,-87.8293,0.0,2.11,275.4,-999.0,'1111122,1111122,1111122' 
DISL,ioos:station:DISL:BSCA:1,2017-04-01T07:30:00Z,30.3288,-87.8293,0.0,2.02,269.4,-999.0,'1111122,1111122,1111122' 
DISL,ioos:station:DISL:BSCA:1,2017-04-01T08:00:00Z,30.3288,-87.8293,0.0,1.52,30.15,-999.0,'1111122,1111122,1111122' 
DISL,ioos:station:DISL:BSCA:1,2017-04-01T08:30:00Z,30.3288,-87.8293,0.0,1.34,70.89,-999.0,'1111122,1111122,1111122' 
DISL,ioos:station:DISL:BSCA:1,2017-04-01T09:00:00Z,30.3288,-87.8293,0.0,1.64,217.2,-999.0,'1111122,1111122,1111122' 
DISL,ioos:station:DISL:BSCA:1,2017-04-01T09:30:00Z,30.3288,-87.8293,0.0,1.45,36.27,-999.0,'1111122,1111122,1111122' 
DISL,ioos:station:DISL:BSCA:1,2017-04-01T10:00:00Z,30.3288,-87.8293,0.0,1.68,39.25,-999.0,'1111122,1111122,1111122' 
DISL,ioos:station:DISL:BSCA:1,2017-04-01T10:30:00Z,30.3288,-87.8293,0.0,1.77,32.33,-999.0,'1111122,1111122,1111122' 
DISL,ioos:station:DISL:BSCA:1,2017-04-01T11:00:00Z,30.3288,-87.8293,0.0,2.17,34.22,-999.0,'1111122,1111122,1111122' 
DISL,ioos:station:DISL:BSCA:1,2017-04-01T11:30:00Z,30.3288,-87.8293,0.0,2.97,24.12,-999.0,'1111122,1111122,1111122' 
DISL,ioos:station:DISL:BSCA:1,2017-04-01T12:00:00Z,30.3288,-87.8293,0.0,3.03,28.72,-999.0,'1111122,1111122,1111122' 
DISL,ioos:station:DISL:BSCA:1,2017-04-01T12:30:00Z,30.3288,-87.8293,0.0,2.83,34.76,-999.0,'1111122,1111122,1111122' 
DISL,ioos:station:DISL:BSCA:1,2017-04-01T13:00:00Z,30.3288,-87.8293,0.0,2.86,31.45,-999.0,'1111122,1111122,1111122' 
DISL,ioos:station:DISL:BSCA:1,2017-04-01T13:30:00Z,30.3288,-87.8293,0.0,2.57,32.53,-999.0,'1111122,1111122,1111122' 
DISL,ioos:station:DISL:BSCA:1,2017-04-01T14:00:00Z,30.3288,-87.8293,0.0,2.34,26.94,-999.0,'1111122,1111122,1111122' 
DISL,ioos:station:DISL:BSCA:1,2017-04-01T14:30:00Z,30.3288,-87.8293,0.0,1.83,52.27,-999.0,'1111122,1111122,1111122' 
DISL,ioos:station:DISL:BSCA:1,2017-04-01T15:00:00Z,30.3288,-87.8293,0.0,1.02,87.5,-999.0,'1111122,1111122,1111122' 
DISL,ioos:station:DISL:BSCA:1,2017-04-01T15:30:00Z,30.3288,-87.8293,0.0,0.18,149.8,-999.0,'1111122,1111122,1111122' 
DISL,ioos:station:DISL:BSCA:1,2017-04-01T16:00:00Z,30.3288,-87.8293,0.0,0.63,206.6,-999.0,'1111122,1111122,1111122' 
DISL,ioos:station:DISL:BSCA:1,2017-04-01T16:30:00Z,30.3288,-87.8293,0.0,1.53,222.8,-999.0,'1111122,1111122,1111122' 
DISL,ioos:station:DISL:BSCA:1,2017-04-01T17:00:00Z,30.3288,-87.8293,0.0,1.35,236.2,-999.0,'1111122,1111122,1111122' 
DISL,ioos:station:DISL:BSCA:1,2017-04-01T17:30:00Z,30.3288,-87.8293,0.0,2.33,208.6,-999.0,'1111122,1111122,1111122' 
DISL,ioos:station:DISL:BSCA:1,2017-04-01T18:00:00Z,30.3288,-87.8293,0.0,4.68,174.7,-999.0,'1111122,1111122,1111122' 
DISL,ioos:station:DISL:BSCA:1,2017-04-01T18:30:00Z,30.3288,-87.8293,0.0,5.53,169.7,-999.0,'1111122,1111122,1111122' 
DISL,ioos:station:DISL:BSCA:1,2017-04-01T19:00:00Z,30.3288,-87.8293,0.0,6.69,159.6,-999.0,'1111122,1111122,1111122' 
DISL,ioos:station:DISL:BSCA:1,2017-04-01T19:30:00Z,30.3288,-87.8293,0.0,6.47,161.3,-999.0,'1111122,1111122,1111122' 
DISL,ioos:station:DISL:BSCA:1,2017-04-01T20:00:00Z,30.3288,-87.8293,0.0,5.81,156.8,-999.0,'1111122,1111122,1111122' 
DISL,ioos:station:DISL:BSCA:1,2017-04-01T20:30:00Z,30.3288,-87.8293,0.0,5.84,159.7,-999.0,'1111122,1111122,1111122' 
DISL,ioos:station:DISL:BSCA:1,2017-04-01T21:00:00Z,30.3288,-87.8293,0.0,4.88,159.4,-999.0,'1111122,1111122,1111122' 
DISL,ioos:station:DISL:BSCA:1,2017-04-01T21:30:00Z,30.3288,-87.8293,0.0,4.96,174.4,-999.0,'1111122,1111122,1111122' 
DISL,ioos:station:DISL:BSCA:1,2017-04-01T22:00:00Z,30.3288,-87.8293,0.0,3.61,172.4,-999.0,'1111122,1111122,1111122' 
DISL,ioos:station:DISL:BSCA:1,2017-04-01T22:30:00Z,30.3288,-87.8293,0.0,3.29,176.8,-999.0,'1111122,1111122,1111122' 
DISL,ioos:station:DISL:BSCA:1,2017-04-01T23:00:00Z,30.3288,-87.8293,0.0,2.85,179.1,-999.0,'1111122,1111122,1111122' 
DISL,ioos:station:DISL:BSCA:1,2017-04-01T23:30:00Z,30.3288,-87.8293,0.0,3.71,198.2,-999.0,'1111122,1111122,1111122' 
DISL,ioos:station:DISL:BSCA:1,2017-04-02T00:00:00Z,30.3288,-87.8293,0.0,2.8,192.4,-999.0,'1111122,1111122,1111122' 
DISL,ioos:station:DISL:BSCA:1,2017-04-02T00:30:00Z,30.3288,-87.8293,0.0,1.9,187.9,-999.0,'1111122,1111122,1111122' 
DISL,ioos:station:DISL:BSCA:1,2017-04-02T01:00:00Z,30.3288,-87.8293,0.0,2.1,186.1,-999.0,'1111122,1111122,1111122' 
DISL,ioos:station:DISL:BSCA:1,2017-04-02T01:30:00Z,30.3288,-87.8293,0.0,1.57,157.5,-999.0,'1111122,1111122,1111122' 
DISL,ioos:station:DISL:BSCA:1,2017-04-02T02:00:00Z,30.3288,-87.8293,0.0,2.45,169.4,-999.0,'1111122,1111122,1111122' 
DISL,ioos:station:DISL:BSCA:1,2017-04-02T02:30:00Z,30.3288,-87.8293,0.0,2.5,166.2,-999.0,'1111122,1111122,1111122' 
DISL,ioos:station:DISL:BSCA:1,2017-04-02T03:00:00Z,30.3288,-87.8293,0.0,2.43,168.7,-999.0,'1111122,1111122,1111122' 
DISL,ioos:station:DISL:BSCA:1,2017-04-02T03:30:00Z,30.3288,-87.8293,0.0,1.89,67.61,-999.0,'1111122,1111122,1111122' 
DISL,ioos:station:DISL:BSCA:1,2017-04-02T04:00:00Z,30.3288,-87.8293,0.0,2.32,69.4,-999.0,'1111122,1111122,1111122' 
DISL,ioos:station:DISL:BSCA:1,2017-04-02T04:30:00Z,30.3288,-87.8293,0.0,2.1,87.7,-999.0,'1111122,1111122,1111122' 
DISL,ioos:station:DISL:BSCA:1,2017-04-02T05:00:00Z,30.3288,-87.8293,0.0,2.41,67.99,-999.0,'1111122,1111122,1111122' 
DISL,ioos:station:DISL:BSCA:1,2017-04-02T05:30:00Z,30.3288,-87.8293,0.0,2.22,75.12,-999.0,'1111122,1111122,1111122' 
DISL,ioos:station:DISL:BSCA:1,2017-04-02T06:00:00Z,30.3288,-87.8293,0.0,2.41,109.4,-999.0,'1111122,1111122,1111122' 
DISL,ioos:station:DISL:BSCA:1,2017-04-02T06:30:00Z,30.3288,-87.8293,0.0,2.26,112.2,-999.0,'1111122,1111122,1111122' 
DISL,ioos:station:DISL:BSCA:1,2017-04-02T07:00:00Z,30.3288,-87.8293,0.0,2.69,103.4,-999.0,'1111122,1111122,1111122' 
DISL,ioos:station:DISL:BSCA:1,2017-04-02T07:30:00Z,30.3288,-87.8293,0.0,2.46,94.2,-999.0,'1111122,1111122,1111122' 
DISL,ioos:station:DISL:BSCA:1,2017-04-02T08:00:00Z,30.3288,-87.8293,0.0,2.74,82.6,-999.0,'1111122,1111122,1111122' 
DISL,ioos:station:DISL:BSCA:1,2017-04-02T08:30:00Z,30.3288,-87.8293,0.0,2.54,105.0,-999.0,'1111122,1111122,1111122' 
DISL,ioos:station:DISL:BSCA:1,2017-04-02T09:00:00Z,30.3288,-87.8293,0.0,2.23,97.3,-999.0,'1111122,1111122,1111122' 
DISL,ioos:station:DISL:BSCA:1,2017-04-02T09:30:00Z,30.3288,-87.8293,0.0,2.68,85.8,-999.0,'1111122,1111122,1111122' 
DISL,ioos:station:DISL:BSCA:1,2017-04-02T10:00:00Z,30.3288,-87.8293,0.0,2.88,105.9,-999.0,'1111122,1111122,1111122' 
DISL,ioos:station:DISL:BSCA:1,2017-04-02T10:30:00Z,30.3288,-87.8293,0.0,2.93,91.7,-999.0,'1111122,1111122,1111122' 
DISL,ioos:station:DISL:BSCA:1,2017-04-02T11:00:00Z,30.3288,-87.8293,0.0,3.15,89.6,-999.0,'1111122,1111122,1111122' 
DISL,ioos:station:DISL:BSCA:1,2017-04-02T11:30:00Z,30.3288,-87.8293,0.0,3.38,86.4,-999.0,'1111122,1111122,1111122' 
DISL,ioos:station:DISL:BSCA:1,2017-04-02T12:00:00Z,30.3288,-87.8293,0.0,4.16,81.9,-999.0,'1111122,1111122,1111122' 
DISL,ioos:station:DISL:BSCA:1,2017-04-02T12:30:00Z,30.3288,-87.8293,0.0,4.21,82.2,-999.0,'1111122,1111122,1111122' 
DISL,ioos:station:DISL:BSCA:1,2017-04-02T13:00:00Z,30.3288,-87.8293,0.0,3.55,89.5,-999.0,'1111122,1111122,1111122' 
DISL,ioos:station:DISL:BSCA:1,2017-04-02T13:30:00Z,30.3288,-87.8293,0.0,2.24,111.2,-999.0,'1111122,1111122,1111122' 
DISL,ioos:station:DISL:BSCA:1,2017-04-02T14:00:00Z,30.3288,-87.8293,0.0,2.27,91.2,-999.0,'1111122,1111122,1111122' 
DISL,ioos:station:DISL:BSCA:1,2017-04-02T14:30:00Z,30.3288,-87.8293,0.0,3.1,121.2,-999.0,'1111122,1111122,1111122' 
DISL,ioos:station:DISL:BSCA:1,2017-04-02T15:00:00Z,30.3288,-87.8293,0.0,5.12,134.5,-999.0,'1111122,1111122,1111122' 
DISL,ioos:station:DISL:BSCA:1,2017-04-02T15:30:00Z,30.3288,-87.8293,0.0,5.61,135.6,-999.0,'1111122,1111122,1111122' 
DISL,ioos:station:DISL:BSCA:1,2017-04-02T16:00:00Z,30.3288,-87.8293,0.0,6.69,135.8,-999.0,'1111122,1111122,1111122' 
DISL,ioos:station:DISL:BSCA:1,2017-04-02T16:30:00Z,30.3288,-87.8293,0.0,6.59,136.5,-999.0,'1111122,1111122,1111122' 
DISL,ioos:station:DISL:BSCA:1,2017-04-02T17:00:00Z,30.3288,-87.8293,0.0,7.39,133.4,-999.0,'1111122,1111122,1111122' 
DISL,ioos:station:DISL:BSCA:1,2017-04-02T17:30:00Z,30.3288,-87.8293,0.0,7.22,133.3,-999.0,'1111122,1111122,1111122' 
DISL,ioos:station:DISL:BSCA:1,2017-04-02T18:00:00Z,30.3288,-87.8293,0.0,8.31,132.0,-999.0,'1111122,1111122,1111122' 
DISL,ioos:station:DISL:BSCA:1,2017-04-02T18:30:00Z,30.3288,-87.8293,0.0,9.07,127.9,-999.0,'1111122,1111122,1111122' 
DISL,ioos:station:DISL:BSCA:1,2017-04-02T19:00:00Z,30.3288,-87.8293,0.0,8.93,125.8,-999.0,'1111122,1111122,1111122' 
DISL,ioos:station:DISL:BSCA:1,2017-04-02T19:30:00Z,30.3288,-87.8293,0.0,8.48,129.5,-999.0,'1111122,1111122,1111122' 
DISL,ioos:station:DISL:BSCA:1,2017-04-02T20:00:00Z,30.3288,-87.8293,0.0,7.75,129.7,-999.0,'1111122,1111122,1111122' 
DISL,ioos:station:DISL:BSCA:1,2017-04-02T20:30:00Z,30.3288,-87.8293,0.0,8.07,129.0,-999.0,'1111122,1111122,1111122' 
DISL,ioos:station:DISL:BSCA:1,2017-04-02T21:00:00Z,30.3288,-87.8293,0.0,8.26,124.0,-999.0,'1111122,1111122,1111122' 
DISL,ioos:station:DISL:BSCA:1,2017-04-02T21:30:00Z,30.3288,-87.8293,0.0,9.11,133.0,-999.0,'1111122,1111122,1111122' 
DISL,ioos:station:DISL:BSCA:1,2017-04-02T22:00:00Z,30.3288,-87.8293,0.0,9.45,125.7,-999.0,'1111122,1111122,1111122' 
DISL,ioos:station:DISL:BSCA:1,2017-04-02T22:30:00Z,30.3288,-87.8293,0.0,9.47,127.8,-999.0,'1111122,1111122,1111122' 
DISL,ioos:station:DISL:BSCA:1,2017-04-02T23:00:00Z,30.3288,-87.8293,0.0,10.1,131.1,-999.0,'1111122,1111122,1111122' 
DISL,ioos:station:DISL:BSCA:1,2017-04-02T23:30:00Z,30.3288,-87.8293,0.0,8.63,123.5,-999.0,'1111122,1111122,1111122' 
DISL,ioos:station:DISL:BSCA:1,2017-04-03T00:00:00Z,30.3288,-87.8293,0.0,8.22,123.1,-999.0,'1111122,1111122,1111122' 
DISL,ioos:station:DISL:BSCA:1,2017-04-03T00:30:00Z,30.3288,-87.8293,0.0,9.25,130.0,-999.0,'1111122,1111122,1111122' 
DISL,ioos:station:DISL:BSCA:1,2017-04-03T01:00:00Z,30.3288,-87.8293,0.0,9.53,135.5,-999.0,'1111122,1111122,1111122' 
DISL,ioos:station:DISL:BSCA:1,2017-04-03T01:30:00Z,30.3288,-87.8293,0.0,8.61,144.0,-999.0,'1111122,1111122,1111122' 
DISL,ioos:station:DISL:BSCA:1,2017-04-03T02:00:00Z,30.3288,-87.8293,0.0,9.15,142.0,-999.0,'1111122,1111122,1111122' 
DISL,ioos:station:DISL:BSCA:1,2017-04-03T02:30:00Z,30.3288,-87.8293,0.0,9.21,153.1,-999.0,'1111122,1111122,1111122' 
DISL,ioos:station:DISL:BSCA:1,2017-04-03T03:00:00Z,30.3288,-87.8293,0.0,9.03,149.1,-999.0,'1111122,1111122,1111122' 
DISL,ioos:station:DISL:BSCA:1,2017-04-03T03:30:00Z,30.3288,-87.8293,0.0,9.88,150.7,-999.0,'1111122,1111122,1111122' 
DISL,ioos:station:DISL:BSCA:1,2017-04-03T04:00:00Z,30.3288,-87.8293,0.0,9.93,148.6,-999.0,'1111122,1111122,1111122' 
DISL,ioos:station:DISL:BSCA:1,2017-04-03T04:30:00Z,30.3288,-87.8293,0.0,9.58,145.2,-999.0,'1111122,1111122,1111122' 
DISL,ioos:station:DISL:BSCA:1,2017-04-03T05:00:00Z,30.3288,-87.8293,0.0,10.06,143.5,-999.0,'1111122,1111122,1111122' 
DISL,ioos:station:DISL:BSCA:1,2017-04-03T05:30:00Z,30.3288,-87.8293,0.0,11.4,144.8,-999.0,'1111122,1111122,1111122' 
DISL,ioos:station:DISL:BSCA:1,2017-04-03T06:00:00Z,30.3288,-87.8293,0.0,11.69,155.3,-999.0,'1111122,1111122,1111122' 
DISL,ioos:station:DISL:BSCA:1,2017-04-03T06:30:00Z,30.3288,-87.8293,0.0,10.57,153.7,-999.0,'1111122,1111122,1111122' 
DISL,ioos:station:DISL:BSCA:1,2017-04-03T07:00:00Z,30.3288,-87.8293,0.0,10.14,159.5,-999.0,'1111122,1111122,1111122' 
DISL,ioos:station:DISL:BSCA:1,2017-04-03T07:30:00Z,30.3288,-87.8293,0.0,9.29,154.1,-999.0,'1111122,1111122,1111122' 
DISL,ioos:station:DISL:BSCA:1,2017-04-03T08:00:00Z,30.3288,-87.8293,0.0,9.25,163.3,-999.0,'1111122,1111122,1111122' 
DISL,ioos:station:DISL:BSCA:1,2017-04-03T08:30:00Z,30.3288,-87.8293,0.0,8.35,159.0,-999.0,'1111122,1111122,1111122' 
DISL,ioos:station:DISL:BSCA:1,2017-04-03T09:00:00Z,30.3288,-87.8293,0.0,10.1,154.7,-999.0,'1111122,1111122,1111122' 
DISL,ioos:station:DISL:BSCA:1,2017-04-03T09:30:00Z,30.3288,-87.8293,0.0,9.06,152.1,-999.0,'1111122,1111122,1111122' 
DISL,ioos:station:DISL:BSCA:1,2017-04-03T10:00:00Z,30.3288,-87.8293,0.0,8.68,163.7,-999.0,'1111122,1111122,1111122' 
DISL,ioos:station:DISL:BSCA:1,2017-04-03T10:30:00Z,30.3288,-87.8293,0.0,9.95,166.9,-999.0,'1111122,1111122,1111122' 
DISL,ioos:station:DISL:BSCA:1,2017-04-03T11:00:00Z,30.3288,-87.8293,0.0,9.57,178.8,-999.0,'1111122,1111122,1111122' 
DISL,ioos:station:DISL:BSCA:1,2017-04-03T11:30:00Z,30.3288,-87.8293,0.0,9.86,176.2,-999.0,'1111122,1111122,1111122' 
DISL,ioos:station:DISL:BSCA:1,2017-04-03T12:00:00Z,30.3288,-87.8293,0.0,9.16,184.5,-999.0,'1111122,1111122,1111122' 
DISL,ioos:station:DISL:BSCA:1,2017-04-03T12:30:00Z,30.3288,-87.8293,0.0,8.81,182.0,-999.0,'1111122,1111122,1111122' 
DISL,ioos:station:DISL:BSCA:1,2017-04-03T13:00:00Z,30.3288,-87.8293,0.0,7.68,177.5,-999.0,'1111122,1111122,1111122' 
DISL,ioos:station:DISL:BSCA:1,2017-04-03T13:30:00Z,30.3288,-87.8293,0.0,6.82,184.0,-999.0,'1111122,1111122,1111122' 
DISL,ioos:station:DISL:BSCA:1,2017-04-03T14:00:00Z,30.3288,-87.8293,0.0,12.48,18.19,-999.0,'1111122,1111122,1111122' 
DISL,ioos:station:DISL:BSCA:1,2017-04-03T14:30:00Z,30.3288,-87.8293,0.0,12.22,49.74,-999.0,'1111122,1111122,1111122' 
DISL,ioos:station:DISL:BSCA:1,2017-04-03T15:00:00Z,30.3288,-87.8293,0.0,9.51,49.86,-999.0,'1111122,1111122,1111122' 
DISL,ioos:station:DISL:BSCA:1,2017-04-03T15:30:00Z,30.3288,-87.8293,0.0,10.52,81.5,-999.0,'1111122,1111122,1111122' 
DISL,ioos:station:DISL:BSCA:1,2017-04-03T16:00:00Z,30.3288,-87.8293,0.0,7.04,95.8,-999.0,'1111122,1111122,1111122' 
DISL,ioos:station:DISL:BSCA:1,2017-04-03T16:30:00Z,30.3288,-87.8293,0.0,10.29,97.7,-999.0,'1111122,1111122,1111122' 
DISL,ioos:station:DISL:BSCA:1,2017-04-03T17:00:00Z,30.3288,-87.8293,0.0,9.27,105.1,-999.0,'1111122,1111122,1111122' 
DISL,ioos:station:DISL:BSCA:1,2017-04-03T17:30:00Z,30.3288,-87.8293,0.0,6.86,98.6,-999.0,'1111122,1111122,1111122' 
DISL,ioos:station:DISL:BSCA:1,2017-04-03T18:00:00Z,30.3288,-87.8293,0.0,5.4,94.0,-999.0,'1111122,1111122,1111122' 
DISL,ioos:station:DISL:BSCA:1,2017-04-03T18:30:00Z,30.3288,-87.8293,0.0,5.15,100.0,-999.0,'1111122,1111122,1111122' 
DISL,ioos:station:DISL:BSCA:1,2017-04-03T19:00:00Z,30.3288,-87.8293,0.0,2.37,104.6,-999.0,'1111122,1111122,1111122' 
DISL,ioos:station:DISL:BSCA:1,2017-04-03T19:30:00Z,30.3288,-87.8293,0.0,2.43,111.5,-999.0,'1111122,1111122,1111122' 
DISL,ioos:station:DISL:BSCA:1,2017-04-03T20:00:00Z,30.3288,-87.8293,0.0,6.0,151.2,-999.0,'1111122,1111122,1111122' 
DISL,ioos:station:DISL:BSCA:1,2017-04-03T20:30:00Z,30.3288,-87.8293,0.0,7.06,141.0,-999.0,'1111122,1111122,1111122' 
DISL,ioos:station:DISL:BSCA:1,2017-04-03T21:00:00Z,30.3288,-87.8293,0.0,5.84,152.3,-999.0,'1111122,1111122,1111122' 
DISL,ioos:station:DISL:BSCA:1,2017-04-03T21:30:00Z,30.3288,-87.8293,0.0,6.51,145.0,-999.0,'1111122,1111122,1111122' 
DISL,ioos:station:DISL:BSCA:1,2017-04-03T22:00:00Z,30.3288,-87.8293,0.0,6.35,140.0,-999.0,'1111122,1111122,1111122' 
DISL,ioos:station:DISL:BSCA:1,2017-04-03T22:30:00Z,30.3288,-87.8293,0.0,5.14,149.5,-999.0,'1111122,1111122,1111122' 
DISL,ioos:station:DISL:BSCA:1,2017-04-03T23:00:00Z,30.3288,-87.8293,0.0,3.77,175.2,-999.0,'1111122,1111122,1111122' 
DISL,ioos:station:DISL:BSCA:1,2017-04-03T23:30:00Z,30.3288,-87.8293,0.0,3.62,185.5,-999.0,'1111122,1111122,1111122' 
DISL,ioos:station:DISL:BSCA:1,2017-04-04T00:00:00Z,30.3288,-87.8293,0.0,3.84,202.9,-999.0,'1111122,1111122,1111122' 
DISL,ioos:station:DISL:BSCA:1,2017-04-04T00:30:00Z,30.3288,-87.8293,0.0,4.15,195.1,-999.0,'1111122,1111122,1111122' 
DISL,ioos:station:DISL:BSCA:1,2017-04-04T01:00:00Z,30.3288,-87.8293,0.0,4.17,187.8,-999.0,'1111122,1111122,1111122' 
DISL,ioos:station:DISL:BSCA:1,2017-04-04T01:30:00Z,30.3288,-87.8293,0.0,3.7,180.7,-999.0,'1111122,1111122,1111122' 
DISL,ioos:station:DISL:BSCA:1,2017-04-04T02:00:00Z,30.3288,-87.8293,0.0,4.15,210.6,-999.0,'1111122,1111122,1111122' 
DISL,ioos:station:DISL:BSCA:1,2017-04-04T02:30:00Z,30.3288,-87.8293,0.0,4.07,220.5,-999.0,'1111122,1111122,1111122' 
DISL,ioos:station:DISL:BSCA:1,2017-04-04T03:00:00Z,30.3288,-87.8293,0.0,3.8,218.0,-999.0,'1111122,1111122,1111122' 
DISL,ioos:station:DISL:BSCA:1,2017-04-04T03:30:00Z,30.3288,-87.8293,0.0,3.73,214.5,-999.0,'1111122,1111122,1111122' 
DISL,ioos:station:DISL:BSCA:1,2017-04-04T04:00:00Z,30.3288,-87.8293,0.0,3.83,207.8,-999.0,'1111122,1111122,1111122' 
DISL,ioos:station:DISL:BSCA:1,2017-04-04T04:30:00Z,30.3288,-87.8293,0.0,4.16,214.1,-999.0,'1111122,1111122,1111122' 
DISL,ioos:station:DISL:BSCA:1,2017-04-04T05:00:00Z,30.3288,-87.8293,0.0,3.58,196.9,-999.0,'1111122,1111122,1111122' 
DISL,ioos:station:DISL:BSCA:1,2017-04-04T05:30:00Z,30.3288,-87.8293,0.0,4.11,204.9,-999.0,'1111122,1111122,1111122' 
DISL,ioos:station:DISL:BSCA:1,2017-04-04T06:00:00Z,30.3288,-87.8293,0.0,3.23,184.0,-999.0,'1111122,1111122,1111122' 
DISL,ioos:station:DISL:BSCA:1,2017-04-04T06:30:00Z,30.3288,-87.8293,0.0,2.33,184.8,-999.0,'1111122,1111122,1111122' 
DISL,ioos:station:DISL:BSCA:1,2017-04-04T07:00:00Z,30.3288,-87.8293,0.0,3.28,208.9,-999.0,'1111122,1111122,1111122' 
DISL,ioos:station:DISL:BSCA:1,2017-04-04T07:30:00Z,30.3288,-87.8293,0.0,3.58,217.8,-999.0,'1111122,1111122,1111122' 
DISL,ioos:station:DISL:BSCA:1,2017-04-04T08:00:00Z,30.3288,-87.8293,0.0,3.23,221.7,-999.0,'1111122,1111122,1111122' 
DISL,ioos:station:DISL:BSCA:1,2017-04-04T08:30:00Z,30.3288,-87.8293,0.0,2.62,305.9,-999.0,'1111122,1111122,1111122' 
DISL,ioos:station:DISL:BSCA:1,2017-04-04T09:00:00Z,30.3288,-87.8293,0.0,2.27,338.0,-999.0,'1111122,1111122,1111122' 
DISL,ioos:station:DISL:BSCA:1,2017-04-04T09:30:00Z,30.3288,-87.8293,0.0,1.98,33.35,-999.0,'1111122,1111122,1111122' 
DISL,ioos:station:DISL:BSCA:1,2017-04-04T10:00:00Z,30.3288,-87.8293,0.0,1.98,107.5,-999.0,'1111122,1111122,1111122' 
DISL,ioos:station:DISL:BSCA:1,2017-04-04T10:30:00Z,30.3288,-87.8293,0.0,1.63,57.89,-999.0,'1111122,1111122,1111122' 
DISL,ioos:station:DISL:BSCA:1,2017-04-04T11:00:00Z,30.3288,-87.8293,0.0,1.26,57.51,-999.0,'1111122,1111122,1111122' 
DISL,ioos:station:DISL:BSCA:1,2017-04-04T11:30:00Z,30.3288,-87.8293,0.0,2.1,22.68,-999.0,'1111122,1111122,1111122' 
DISL,ioos:station:DISL:BSCA:1,2017-04-04T12:00:00Z,30.3288,-87.8293,0.0,3.84,346.3,-999.0,'1111122,1111122,1111122' 
DISL,ioos:station:DISL:BSCA:1,2017-04-04T12:30:00Z,30.3288,-87.8293,0.0,2.57,52.59,-999.0,'1111122,1111122,1111122' 
DISL,ioos:station:DISL:BSCA:1,2017-04-04T13:00:00Z,30.3288,-87.8293,0.0,2.52,58.99,-999.0,'1111122,1111122,1111122' 
DISL,ioos:station:DISL:BSCA:1,2017-04-04T13:30:00Z,30.3288,-87.8293,0.0,2.56,74.75,-999.0,'1111122,1111122,1111122' 
DISL,ioos:station:DISL:BSCA:1,2017-04-04T14:00:00Z,30.3288,-87.8293,0.0,1.77,77.18,-999.0,'1111122,1111122,1111122' 
DISL,ioos:station:DISL:BSCA:1,2017-04-04T14:30:00Z,30.3288,-87.8293,0.0,1.39,52.95,-999.0,'1111122,1111122,1111122' 
DISL,ioos:station:DISL:BSCA:1,2017-04-04T15:00:00Z,30.3288,-87.8293,0.0,1.89,345.8,-999.0,'1111122,1111122,1111122' 
DISL,ioos:station:DISL:BSCA:1,2017-04-04T15:30:00Z,30.3288,-87.8293,0.0,3.9,334.7,-999.0,'1111122,1111122,1111122' 
DISL,ioos:station:DISL:BSCA:1,2017-04-04T16:00:00Z,30.3288,-87.8293,0.0,2.41,339.3,-999.0,'1111122,1111122,1111122' 
DISL,ioos:station:DISL:BSCA:1,2017-04-04T16:30:00Z,30.3288,-87.8293,0.0,1.92,262.7,-999.0,'1111122,1111122,1111122' 
DISL,ioos:station:DISL:BSCA:1,2017-04-04T17:00:00Z,30.3288,-87.8293,0.0,4.34,173.6,-999.0,'1111122,1111122,1111122' 
DISL,ioos:station:DISL:BSCA:1,2017-04-04T17:30:00Z,30.3288,-87.8293,0.0,4.62,161.7,-999.0,'1111122,1111122,1111122' 
DISL,ioos:station:DISL:BSCA:1,2017-04-04T18:00:00Z,30.3288,-87.8293,0.0,5.83,169.6,-999.0,'1111122,1111122,1111122' 
DISL,ioos:station:DISL:BSCA:1,2017-04-04T18:30:00Z,30.3288,-87.8293,0.0,7.44,153.2,-999.0,'1111122,1111122,1111122' 
DISL,ioos:station:DISL:BSCA:1,2017-04-04T19:00:00Z,30.3288,-87.8293,0.0,5.74,148.9,-999.0,'1111122,1111122,1111122' 
DISL,ioos:station:DISL:BSCA:1,2017-04-04T19:30:00Z,30.3288,-87.8293,0.0,5.9,145.1,-999.0,'1111122,1111122,1111122' 
DISL,ioos:station:DISL:BSCA:1,2017-04-04T20:00:00Z,30.3288,-87.8293,0.0,7.1,142.1,-999.0,'1111122,1111122,1111122' 
DISL,ioos:station:DISL:BSCA:1,2017-04-04T20:30:00Z,30.3288,-87.8293,0.0,6.3,150.8,-999.0,'1111122,1111122,1111122' 
DISL,ioos:station:DISL:BSCA:1,2017-04-04T21:00:00Z,30.3288,-87.8293,0.0,6.31,134.7,-999.0,'1111122,1111122,1111122' 
DISL,ioos:station:DISL:BSCA:1,2017-04-04T21:30:00Z,30.3288,-87.8293,0.0,6.52,133.8,-999.0,'1111122,1111122,1111122' 
DISL,ioos:station:DISL:BSCA:1,2017-04-04T22:00:00Z,30.3288,-87.8293,0.0,6.62,135.6,-999.0,'1111122,1111122,1111122' 
DISL,ioos:station:DISL:BSCA:1,2017-04-04T22:30:00Z,30.3288,-87.8293,0.0,7.04,133.5,-999.0,'1111122,1111122,1111122' 
DISL,ioos:station:DISL:BSCA:1,2017-04-04T23:00:00Z,30.3288,-87.8293,0.0,6.76,132.4,-999.0,'1111122,1111122,1111122' 
DISL,ioos:station:DISL:BSCA:1,2017-04-04T23:30:00Z,30.3288,-87.8293,0.0,6.29,125.0,-999.0,'1111122,1111122,1111122' 
DISL,ioos:station:DISL:BSCA:1,2017-04-05T00:00:00Z,30.3288,-87.8293,0.0,7.0,135.3,-999.0,'1111122,1111122,1111122' 
DISL,ioos:station:DISL:BSCA:1,2017-04-05T00:30:00Z,30.3288,-87.8293,0.0,4.42,147.8,-999.0,'1111122,1111122,1111122' 
DISL,ioos:station:DISL:BSCA:1,2017-04-05T01:00:00Z,30.3288,-87.8293,0.0,4.83,159.0,-999.0,'1111122,1111122,1111122' 
DISL,ioos:station:DISL:BSCA:1,2017-04-05T01:30:00Z,30.3288,-87.8293,0.0,5.49,157.8,-999.0,'1111122,1111122,1111122' 
DISL,ioos:station:DISL:BSCA:1,2017-04-05T02:00:00Z,30.3288,-87.8293,0.0,5.3,159.9,-999.0,'1111122,1111122,1111122' 
DISL,ioos:station:DISL:BSCA:1,2017-04-05T02:30:00Z,30.3288,-87.8293,0.0,4.27,162.0,-999.0,'1111122,1111122,1111122' 
DISL,ioos:station:DISL:BSCA:1,2017-04-05T03:00:00Z,30.3288,-87.8293,0.0,6.12,156.5,-999.0,'1111122,1111122,1111122' 
DISL,ioos:station:DISL:BSCA:1,2017-04-05T03:30:00Z,30.3288,-87.8293,0.0,4.61,167.0,-999.0,'1111122,1111122,1111122' 
DISL,ioos:station:DISL:BSCA:1,2017-04-05T04:00:00Z,30.3288,-87.8293,0.0,5.41,172.3,-999.0,'1111122,1111122,1111122' 
DISL,ioos:station:DISL:BSCA:1,2017-04-05T04:30:00Z,30.3288,-87.8293,0.0,7.4,170.1,-999.0,'1111122,1111122,1111122' 
DISL,ioos:station:DISL:BSCA:1,2017-04-05T05:00:00Z,30.3288,-87.8293,0.0,6.87,174.8,-999.0,'1111122,1111122,1111122' 
DISL,ioos:station:DISL:BSCA:1,2017-04-05T05:30:00Z,30.3288,-87.8293,0.0,7.4,174.5,-999.0,'1111122,1111122,1111122' 